EHI
0 0 1 2 3 3 2 1 0 0 0 0 0 0 0 0 0 0 0 0 0 0 0 0 0 0 0 0 0 0 0 0 0 0 0 0 0 0 0 0 0 0 0
0 0 1 2 3 3 2 1 0 0 0 0 0 0 0 0 0 0 0 0 0 0 0 0 0 0 0 0 0 0 0 0 0 0 0 0 0 0 0 0 0 0 0
0 0 0 1 2 2 1 0 0 0 0 0 0 0 0 0 0 0 0 0 0 0 0 0 0 0 0 0 0 0 0 0 0 0 0 0 0 0 0 0 0 0 0
0 0 0 0 1 1 1 1 0 0 0 0 0 0 0 0 0 0 0 0 0 0 0 0 0 0 0 0 0 0 0 0 0 0 0 0 0 0 0 0 0 0 0
0 0 0 0 0 1 1 1 0 0 0 0 0 0 0 0 0 0 0 0 0 0 0 0 0 0 0 0 0 0 0 0 0 0 0 0 0 0 0 0 0 0 0
0 0 0 0 0 0 0 0 0 0 0 0 0 0 0 0 0 0 0 0 0 0 0 0 0 0 0 0 0 0 0 0 0 0 0 0 0 0 0 0 0 0 0
0 0 0 0 0 0 0 0 0 0 0 0 0 0 0 0 0 0 0 0 0 0 0 0 0 0 0 0 0 0 0 0 0 0 0 0 0 0 0 0 0 0 0
0 0 0 0 0 0 0 0 0 0 0 0 0 0 0 0 0 0 0 0 0 0 0 0 0 0 0 0 0 0 0 0 0 0 0 0 0 0 0 0 0 0 0
0 0 0 0 0 0 0 0 0 0 0 0 0 0 0 0 0 0 0 0 0 0 0 0 0 0 0 0 0 0 0 0 0 0 0 0 0 0 0 0 0 0 0
0 0 0 0 0 0 0 0 0 0 0 0 0 0 0 0 0 0 0 0 0 0 0 0 0 0 0 0 0 0 0 0 0 0 0 0 0 0 0 0 0 0 0
0 0 0 0 0 0 0 0 0 0 0 0 0 0 0 0 0 0 0 0 0 0 0 0 0 0 0 0 0 0 0 0 0 0 0 0 0 0 0 0 0 0 0
0 0 0 0 0 0 0 0 0 0 0 0 0 0 0 0 0 0 0 0 0 0 0 0 0 0 0 0 0 0 0 0 0 0 0 0 0 0 0 0 0 0 0
0 0 0 0 0 0 0 0 0 0 0 0 0 0 0 0 0 0 0 0 0 0 0 0 0 0 0 0 0 0 0 0 0 0 0 0 0 0 0 0 0 0 0
0 0 0 0 0 0 0 0 0 0 0 0 0 0 0 0 0 0 0 0 0 0 0 0 0 0 0 0 0 0 0 0 0 0 0 0 0 0 0 0 0 0 0
0 0 0 0 0 0 0 0 0 0 0 0 0 0 0 0 0 0 0 0 0 0 0 0 0 0 0 0 0 0 0 0 0 0 0 0 0 0 0 0 0 0 0
0 0 0 0 0 0 0 0 0 0 0 0 0 0 0 0 0 0 0 0 0 0 0 0 0 0 0 0 0 0 0 0 0 0 0 0 0 0 0 0 0 0 0
0 0 0 0 0 0 0 0 0 0 0 0 0 0 0 0 0 0 0 0 0 0 0 0 0 0 0 0 0 0 0 0 0 0 0 0 0 0 0 0 0 0 0
0 0 0 0 0 0 0 0 0 0 0 0 0 0 0 0 0 0 0 0 0 0 0 0 0 0 0 0 0 0 0 0 0 0 0 0 0 0 0 0 0 0 0
0 0 0 0 0 0 0 0 0 0 0 0 0 0 0 0 0 0 0 0 0 0 0 0 0 0 0 0 0 0 0 0 0 0 0 0 0 0 0 0 0 0 0
0 0 0 0 0 0 0 0 0 0 0 0 0 0 0 0 0 0 0 0 0 0 0 0 0 0 0 0 0 0 0 0 0 0 0 0 0 0 0 0 0 0 0
0 0 0 0 0 0 0 0 0 0 0 0 0 0 0 0 0 0 0 0 0 0 0 0 0 0 0 0 0 0 0 0 0 0 0 0 0 0 0 0 0 0 0
0 0 0 0 0 0 0 0 0 0 0 0 0 0 0 0 0 0 0 0 0 0 0 0 0 0 0 0 0 0 0 0 0 0 0 0 0 0 0 0 0 0 0
0 0 0 0 0 0 0 0 0 0 0 0 0 0 0 0 0 0 0 0 0 0 0 0 0 0 0 0 0 0 0 0 0 0 0 0 0 0 0 0 0 0 0
0 0 0 0 0 0 0 0 0 0 0 0 0 0 0 0 0 0 0 0 0 0 0 0 0 0 0 0 0 0 0 0 0 0 0 0 0 0 0 0 0 0 0
0 0 0 0 0 0 0 0 0 0 0 0 0 0 0 0 0 0 0 0 0 0 0 0 0 0 0 0 0 0 0 0 0 0 0 0 0 0 0 0 0 0 0
0 0 0 0 0 0 0 0 0 0 0 0 0 0 0 0 0 0 0 0 0 0 0 0 0 0 0 0 0 0 0 0 0 0 0 0 0 0 0 0 0 0 0
Wind_Speed
4 4 3 3 4 4 4 4 4 4 4 4 4 4 4 4 4 3 4 6 6 7 7 7 7 7 8 8 9 9 9 9 8 8 8 7 8 8 8 8 8 8 8
3 4 4 4 4 3 4 4 5 4 4 3 4 4 4 3 3 3 4 5 6 5 6 6 6 7 7 8 8 8 8 8 7 7 7 7 6 7 7 8 8 8 8
4 4 3 4 4 4 5 4 5 4 3 4 4 3 3 3 3 3 3 3 4 5 5 5 6 6 6 6 7 6 7 7 6 6 6 6 6 6 6 7 7 8 8
5 4 4 3 4 4 4 4 4 4 4 3 3 2 2 2 2 2 2 2 2 2 4 5 5 5 5 5 5 5 5 5 5 5 5 5 5 5 6 6 7 7 7
4 4 4 4 4 4 4 4 4 4 4 4 3 2 2 2 2 2 2 2 2 2 2 5 5 5 4 4 4 4 4 4 4 4 4 4 4 5 5 5 6 6 7
4 4 4 5 5 4 4 4 5 4 4 4 3 2 1 1 1 1 1 1 2 2 1 2 2 3 5 4 4 4 3 3 3 3 3 3 3 3 4 4 4 4 5
4 4 4 5 5 5 5 6 5 6 4 4 3 2 2 1 1 1 1 1 2 1 1 2 1 1 2 3 3 3 2 2 2 1 1 1 1 2 2 3 3 4 5
4 4 5 4 5 5 6 7 6 4 3 4 3 3 3 3 2 1 1 1 2 2 1 1 1 1 0 0 2 2 2 1 0 0 1 1 2 2 2 2 3 3 4
3 3 4 4 5 5 6 7 7 7 5 4 3 3 3 3 3 2 3 2 2 2 2 2 1 1 1 1 1 1 2 2 1 2 2 2 2 2 2 3 3 3 4
3 3 4 5 5 5 5 6 7 6 7 5 3 2 2 1 3 3 3 3 3 3 3 2 2 2 2 1 1 0 1 2 3 3 3 2 3 3 3 3 3 3 3
3 3 3 4 4 4 5 6 7 7 6 6 5 4 3 2 3 3 3 3 3 3 3 3 2 2 2 2 2 1 1 2 3 4 3 3 3 4 4 4 4 4 4
3 3 3 4 4 4 5 5 5 7 6 6 5 4 4 4 4 3 3 3 3 3 3 3 3 3 2 3 2 1 2 2 3 4 4 4 4 4 5 5 5 5 4
3 4 3 4 4 4 5 5 5 5 6 7 6 5 4 4 3 3 3 2 3 2 3 3 3 3 3 3 2 2 3 3 3 4 4 4 4 4 5 6 6 6 6
3 4 4 4 4 5 5 5 5 5 5 6 6 6 4 4 3 3 3 3 3 3 4 4 3 3 3 3 2 4 3 3 3 4 4 4 4 4 5 5 6 6 6
2 4 4 4 5 5 5 5 5 5 5 5 6 6 5 4 3 3 3 4 4 4 4 4 3 3 3 3 3 4 4 4 5 5 5 5 4 5 5 5 5 5 5
3 3 4 4 4 5 5 6 5 6 6 5 4 6 6 5 4 4 3 3 4 5 4 3 3 3 3 3 3 4 4 3 5 5 5 5 5 5 5 5 5 5 5
3 3 4 4 4 5 5 5 6 6 6 6 6 6 7 7 5 5 4 4 4 4 4 3 2 2 4 4 3 3 3 4 3 5 6 6 6 6 6 6 6 6 6
3 3 4 4 4 5 5 6 6 6 7 7 7 7 7 5 7 5 5 5 5 4 4 5 3 3 4 4 4 4 3 3 3 4 6 6 6 7 7 6 7 7 6
3 3 3 4 4 5 5 6 6 6 7 7 7 7 7 7 7 5 6 5 5 4 4 4 4 2 2 2 3 3 3 3 3 3 5 6 7 7 7 7 7 7 6
4 4 4 4 5 5 5 6 6 6 6 6 6 6 7 7 8 7 6 6 5 5 4 4 4 3 3 3 3 3 3 3 3 3 4 4 5 7 8 8 7 7 7
4 4 4 4 4 4 5 5 6 6 6 6 6 6 6 7 7 6 5 6 6 5 5 5 4 4 4 3 4 3 4 3 3 3 3 4 4 4 5 6 7 7 7
3 4 4 5 5 4 5 6 6 6 6 6 6 6 6 7 7 8 8 8 8 7 7 6 5 6 6 5 4 3 3 3 3 2 3 4 4 4 4 4 5 6 7
3 4 4 5 5 5 6 6 7 5 6 6 6 5 5 5 7 7 7 7 7 8 8 7 7 7 6 5 5 5 5 5 4 2 3 4 4 5 4 4 6 7 8
3 3 4 4 5 5 6 6 6 6 6 6 6 6 6 6 6 6 6 6 6 6 7 7 6 6 5 4 5 5 4 4 3 2 3 4 4 4 4 4 6 8 8
3 3 3 4 4 4 5 6 6 4 4 5 5 5 6 6 7 7 6 6 6 5 4 5 5 4 4 5 4 3 3 3 3 3 3 3 3 3 4 4 4 6 8
3 3 3 3 3 4 4 5 6 4 4 4 4 4 5 6 7 8 7 6 6 5 4 4 4 4 4 4 6 6 5 4 3 3 3 3 2 2 3 3 3 4 5
Wind_Direction
157 153 153 155 156 149 148 143 138 134 136 132 129 126 120 115 113 109 104 78 79 92 96 95 95 99 96 91 86 82 76 73 70 68 65 63 59 55 51 49 48 44 39
153 158 158 157 153 151 148 149 143 142 137 132 132 130 123 115 110 113 115 106 80 79 95 98 98 98 94 91 87 82 75 72 70 68 65 62 60 58 53 48 45 38 33
159 158 157 159 151 149 151 147 143 141 131 132 133 128 122 119 121 117 117 115 110 83 78 92 100 99 96 93 91 85 78 72 68 66 64 61 60 56 53 45 40 34 31
164 161 152 157 155 156 157 153 152 145 142 143 137 130 126 124 128 122 123 120 109 108 89 79 88 93 96 99 98 90 82 76 69 62 61 60 60 59 57 48 41 36 30
169 166 159 155 161 162 163 157 160 156 153 146 137 131 126 126 129 133 130 118 99 94 104 90 78 70 76 94 99 95 86 77 73 64 58 58 57 57 56 49 40 33 27
171 167 162 164 165 166 167 166 159 157 155 146 133 120 110 123 133 140 146 132 123 114 107 112 108 82 66 68 80 86 89 84 75 68 55 47 46 44 44 38 31 24 19
173 174 168 171 175 180 177 170 157 157 153 152 145 139 130 132 146 156 177 172 144 132 116 103 98 106 102 78 65 68 73 82 71 60 48 21 12 17 23 17 16 14 12
177 186 182 179 180 183 183 176 168 165 160 180 176 169 176 182 179 185 192 197 189 176 164 153 135 118 107 159 78 54 36 28 39 332 347 325 324 332 341 348 355 1 0
183 190 192 186 184 187 192 186 183 181 173 184 205 205 199 195 163 177 197 203 204 201 196 189 194 192 207 220 172 92 7 334 298 286 290 286 290 305 314 325 338 339 344
188 193 196 194 191 190 194 194 193 194 184 183 190 227 274 185 185 169 185 202 207 216 212 204 206 205 218 220 219 32 345 315 288 279 280 282 290 293 300 313 327 326 329
191 195 198 199 197 194 195 199 194 199 200 198 189 186 196 217 229 207 193 192 201 211 216 218 218 215 222 227 225 201 230 260 268 273 273 277 287 294 299 303 308 313 317
193 199 201 202 203 201 198 201 203 203 206 205 200 196 196 200 206 216 217 205 209 199 205 216 222 221 225 232 232 231 235 248 261 266 268 278 292 301 301 300 301 301 301
201 202 207 208 207 207 205 201 204 207 208 207 207 207 212 220 215 220 220 208 216 203 208 217 220 222 222 231 222 219 230 247 259 268 274 278 293 304 303 296 292 296 296
211 207 209 214 212 208 205 202 205 207 208 207 210 211 211 217 214 216 216 204 209 214 218 218 209 218 220 224 221 219 224 230 254 265 274 279 287 297 297 297 296 293 294
219 211 210 211 214 211 208 202 204 208 207 209 209 210 212 213 214 220 222 224 224 226 226 211 209 209 214 221 209 220 231 220 241 253 265 270 273 278 281 279 286 288 289
220 216 215 214 215 213 211 208 207 209 210 212 209 211 213 212 207 210 215 229 244 246 243 217 210 201 204 219 219 230 230 227 235 246 254 259 263 267 267 268 273 278 280
225 222 222 219 219 218 215 213 211 207 210 213 212 213 216 212 207 205 208 215 227 236 240 241 218 213 214 218 216 231 238 237 230 234 245 251 254 259 260 263 268 272 274
236 230 226 223 223 224 220 219 218 214 214 215 216 215 217 212 213 211 207 211 218 222 228 234 227 215 226 227 230 230 237 245 250 234 242 249 250 256 258 262 265 268 272
237 233 229 228 226 225 224 224 223 222 220 220 219 218 217 213 213 210 211 213 214 216 223 227 231 221 228 223 235 239 242 247 254 245 245 248 251 258 258 260 262 265 271
239 236 236 238 235 230 227 224 225 225 225 223 221 222 221 219 220 212 213 215 211 210 213 221 225 223 223 220 225 231 240 242 248 244 246 256 256 259 257 258 260 264 271
246 241 237 237 236 234 229 224 223 226 226 225 223 222 223 224 227 222 217 212 206 208 209 215 221 223 220 211 222 227 241 248 259 243 254 253 253 251 248 249 252 261 270
246 240 236 235 235 236 230 230 232 229 227 227 225 223 221 220 221 221 223 223 217 212 213 217 224 226 228 226 226 221 227 239 249 228 253 257 250 255 257 254 259 264 268
254 244 239 236 238 236 227 226 228 234 231 229 227 222 220 221 218 219 217 219 223 226 228 230 228 231 231 222 217 221 228 241 255 242 245 254 249 258 260 258 261 262 267
262 253 246 241 241 237 228 225 225 231 234 233 231 226 222 220 219 216 213 216 223 225 226 228 232 235 235 226 220 229 233 247 265 246 237 251 253 263 269 258 250 258 268
272 266 259 249 245 243 229 225 224 229 229 235 236 233 228 226 218 211 213 215 221 228 223 223 232 229 229 226 219 210 211 221 245 238 228 246 257 275 272 261 251 258 267
274 275 272 261 249 247 237 231 226 226 225 229 231 229 228 230 221 213 216 214 219 222 213 208 216 221 225 215 212 219 218 222 236 236 207 227 244 264 269 253 261 264 259